NOAA 16 DEB, 41266

Orbit data source: Space-Track

NOAA 16 DEB, 41266 is space debris in SSO originally from a launch on Thu, 21 Sep 2000 UTC launched from the Air Force Western Test Range (AFWTR). Debris objects in space refer to the collection of defunct objects orbiting the Earth. Examples of debris include non-operational satellites, rocket bodies, and fragments generated from explosions, collisions, or faulty payload assembly.

Loading next visibility...
Identifier
41266, 2000-055FS
Orbit
SSO
Country
Flag of USUS
Related business
Manufacturer
Unknown
Mission
Spacecraft
Bus & Motor
Unknown
Mass
Unknown
Launch date (UTC)
2000-09-21 (26 years ago)
Launch vehicle
Unknown
Launch site
Air Force Western Test Range (AFWTR)
Object type
Payload
Rocket body
Debris
Shape & HBR
Unknown shape, 0.1 m
Radar Cross Section
Medium (>0.1 m² and <1 m²)

Expand to show TLE details & history
Last TLE update: 6 hours ago

TLE from 6 hours ago
0 NOAA 16 DEB
1 41266U 00055FS  26236.44185778  .00002242  00000-0  91356-3 0  9999
2 41266  98.6455 301.8786 0005390 167.5021 192.6295 14.28415424550032
Epoch: 2026-08-24T10:36Z
TLE epoch observation values (Epoch: 2026-08-24T10:36:16.512Z)
Latitude
Longitude
170.08629°
Altitude
803.735 km
Speed
7.45 km/s
True Right ascension
20h 07m 30s
True Declination
0° 00' 00"
Sunlit
Object was in full shadow at epoch
Visualization orbit readout
Latitude
Unknown
Longitude
Unknown
Altitude
Unknown
Speed
Unknown
Apparent Right ascension
Unknown
Apparent Declination
Unknown
Sunlit
N/A
Visualization observer readout
Local Sidereal Time
07:24:47
Azimuth
Unknown
Elevation
Unknown
Doppler factor
Unknown
Orbital elements
Apogee altitude
798.042 km
Perigee altitude
790.311 km
Semi-major axis
7,172.314 km
Eccentricity
0.00054
Inclination
98.6455°
RAAN
301.8786°
Arg. of periapsis
167.5021°
True anomaly
192.616°
Mean anomaly
192.6295°
Eccentric anomaly
192.62275°
Mean motion
3.57317 °/min
Orbital period
100.75 mins
BSTAR
0.00091356
Loading maneuver chart data...
Computing Atmospheric mass density...

Documentation

Showing up to 5 results
|